+ View the NASA Portal
+ Center for Near-Earth Object Studies
JPL Small-Body Database Browser
Search:
[
help
]
15667 (5046 T-3)
Classification:
Main-belt Asteroid
SPK-ID:
2015667
[
Ephemeris
|
Orbit Diagram
|
Orbital Elements
|
Mission Design
|
Physical Parameters
|
Discovery Circumstances
|
Close-Approach Data
]
[ show orbit diagram ]
Orbital Elements at Epoch 2459000.5 (2020-May-31.0) TDB
Reference:
JPL 28
(heliocentric ecliptic J2000)
Element
Value
Uncertainty (1-sigma)
Units
e
.1162193118071053
3.116e-08
a
2.295261267415465
7.6728e-09
au
q
2.028507582498936
7.3801e-08
au
i
6.178128913069516
3.3815e-06
deg
node
116.9643790467924
3.6356e-05
deg
peri
356.2443868546356
4.0745e-05
deg
M
12.85817339405368
1.7663e-05
deg
t
p
2458955.134740853115
(2020-Apr-15.63474085)
6.2306e-05
TDB
period
1270.125451911474
3.48
6.3688e-06
1.744e-08
d
yr
n
.2834365687721779
1.4212e-09
deg/d
Q
2.562014952331995
8.5645e-09
au
Orbit Determination Parameters
# obs. used (total)
1278
data-arc span
15544 days (42.56 yr)
first obs. used
1977-10-11
last obs. used
2020-05-02
planetary ephem.
DE431
SB-pert. ephem.
SB431-N16
condition code
0
norm. resid. RMS
.49688
source
ORB
producer
Otto Matic
solution date
2020-Nov-13 02:32:09
Additional Information
Earth MOID
= 1.04505 au
Jupiter MOID
= 2.51923 au
T_jup
= 3.579
[ show covariance matrix ]
[
Ephemeris
|
Orbit Diagram
|
Orbital Elements
|
Mission Design
|
Physical Parameters
|
Discovery Circumstances
|
Close-Approach Data
]
Physical Parameter Table
Parameter
Symbol
Value
Units
Sigma
Reference
Notes
absolute magnitude
H
15.4
n/a
MPO502289
diameter
diameter
2.166
km
0.314
urn:nasa:pds:neowise_diameters_albedos::2.0[mainbelt] (http://adsabs.harvard.edu/abs/2011ApJ...741...68M)
geometric albedo
albedo
0.453
0.155
urn:nasa:pds:neowise_diameters_albedos::2.0[mainbelt] (http://adsabs.harvard.edu/abs/2011ApJ...741...68M)
15667 (5046 T-3)
Discovered 1977-Oct-16 by van Houten, C. J., van Houten-Groeneveld, I., Gehrels, T. at Palomar
Reference:
20000621/Numbers.arc
Last Updated:
2004-04-19
[ show close-approach data ]
[
Ephemeris
|
Orbit Diagram
|
Orbital Elements
|
Mission Design
|
Physical Parameters
|
Discovery Circumstances
|
Close-Approach Data
]
2021-Jan-28 16:13 UT
(server date/time)
Site Manager:
Ryan S. Park
Webmaster
:
Alan B. Chamberlin